KQ4UPF Weather Reports


time (UTC)temp
F
wind
direction
speed
knots
gust
knots
rain 1hr
in
rain 24hr
in
rain mn
in
humidity
%
barometer
mb
20260906141350 82 340 0.0 0.0 0.00 0.00 0.00 75 1014.0
20260906140850 82 217 0.0 0.9 0.00 0.00 0.00 76 1014.4
20260906140344 81 328 1.7 1.7 0.00 0.00 0.00 77 1014.3
20260906135843 80 278 0.9 1.7 0.00 0.00 0.00 77 1014.3
20260906135343 80 314 1.7 2.6 0.00 0.00 0.00 79 1014.4
20260906134839 80 321 1.7 2.6 0.00 0.00 0.00 79 1014.6
20260906134339 80 248 0.0 2.6 0.00 0.00 0.00 80 1014.6
20260906133835 79 286 1.7 2.6 0.00 0.00 0.00 80 1014.5
20260906133330 78 345 1.7 1.7 0.00 0.00 0.00 82 1014.6
20260906132826 79 1 1.7 1.7 0.00 0.00 0.00 84 1014.7
20260906132320 78 322 2.6 3.5 0.00 0.00 0.00 82 1014.7
20260906131816 77 23 1.7 1.7 0.00 0.00 0.00 83 1014.6
20260906131311 77 10 0.9 1.7 0.00 0.00 0.00 86 1014.7
20260906130807 77 10 1.7 2.6 0.00 0.00 0.00 84 1014.8
20260906130306 77 23 1.7 2.6 0.00 0.00 0.00 86 1014.5
20260906125805 76 339 0.9 0.9 0.00 0.00 0.00 88 1014.7
20260906125306 75 348 2.6 2.6 0.00 0.00 0.00 90 1014.6
20260906124758 75 15 1.7 2.6 0.00 0.00 0.00 91 1014.8
20260906124254 74 357 0.9 1.7 0.00 0.00 0.00 93 1014.9
20260906123753 73 278 0.0 1.7 0.00 0.00 0.00 95 1014.9
20260906123248 73 320 0.9 2.6 0.00 0.00 0.00 96 1014.8
20260906122748 72 326 1.7 1.7 0.00 0.00 0.00 98 1014.9
20260906122243 72 325 0.0 0.9 0.00 0.00 0.00 98 1014.7
20260906121739 71 326 0.0 0.9 0.00 0.00 0.00 98 1015.1
20260906121236 71 326 1.7 1.7 0.00 0.00 0.00 98 1014.8
20260906120731 71 326 0.9 0.9 0.00 0.00 0.00 98 1014.7
20260906120228 71 326 0.0 0.0 0.00 0.00 0.00 98 1014.9
20260906115723 71 326 1.7 0.9 0.00 0.00 0.00 98 1014.8
20260906115218 71 325 0.0 0.0 0.00 0.00 0.00 98 1014.7
20260906114717 71 325 0.0 1.7 0.00 0.00 0.00 98 1014.7
20260906114212 71 326 0.0 0.9 0.00 0.00 0.00 98 1014.8
20260906113708 71 326 0.0 0.0 0.00 0.00 0.00 98 1014.6
20260906113207 71 326 0.0 0.0 0.00 0.00 0.00 98 1014.7
20260906112707 71 326 0.0 0.9 0.00 0.00 0.00 98 1014.4
20260906112204 71 326 0.0 0.0 0.00 0.00 0.00 98 1014.6
20260906111703 71 326 0.0 0.0 0.00 0.00 0.00 98 1014.6
20260906111157 72 325 0.0 0.9 0.00 0.00 0.00 98 1014.4
20260906110653 72 326 0.0 0.0 0.00 0.00 0.00 98 1014.4
20260906110148 72 326 0.0 0.0 0.00 0.00 0.00 97 1014.2
20260906105642 72 326 0.0 0.0 0.00 0.00 0.00 97 1014.1
20260906105138 72 326 0.9 0.9 0.00 0.00 0.00 97 1013.9
20260906104638 72 325 0.0 1.7 0.00 0.00 0.00 97 1014.0
20260906104137 72 326 0.0 0.0 0.00 0.00 0.00 97 1014.2
20260906103635 72 327 0.0 0.9 0.00 0.00 0.00 97 1014.0
20260906103131 72 47 0.0 0.9 0.00 0.00 0.00 97 1014.0
20260906102626 72 65 0.9 0.9 0.00 0.00 0.00 97 1014.2
20260906102126 72 64 0.0 0.9 0.00 0.00 0.00 97 1014.1
20260906101626 72 72 0.9 1.7 0.00 0.00 0.00 97 1013.6
20260906101125 72 74 0.0 0.0 0.00 0.00 0.00 97 1013.8
20260906100621 72 207 0.9 0.9 0.00 0.00 0.00 97 1013.8
20260906100116 71 211 0.0 0.9 0.00 0.00 0.00 97 1013.6
20260906095616 71 350 0.0 0.0 0.00 0.00 0.00 96 1013.5
20260906095112 72 350 0.0 0.0 0.00 0.00 0.00 96 1013.3
20260906094610 72 350 0.0 0.0 0.00 0.00 0.00 96 1013.3
20260906094106 72 350 0.9 0.9 0.00 0.00 0.00 96 1013.0
20260906093602 72 316 0.0 0.9 0.00 0.00 0.00 97 1013.3
20260906093057 72 315 0.9 3.5 0.00 0.00 0.00 97 1013.0
20260906092552 72 319 0.0 0.0 0.00 0.00 0.00 97 1013.0
20260906092047 72 318 1.7 2.6 0.00 0.00 0.00 96 1013.1
20260906091543 72 348 0.9 0.9 0.00 0.00 0.00 95 1013.3
20260906091039 73 309 2.6 2.6 0.00 0.00 0.00 94 1012.9
20260906090539 73 196 0.9 0.9 0.00 0.00 0.00 93 1013.0
20260906090034 74 139 0.9 0.9 0.00 0.00 0.00 91 1012.9
20260906085533 75 229 0.9 1.7 0.00 0.00 0.00 87 1013.0
20260906085032 75 280 0.0 0.9 0.00 0.00 0.00 86 1013.2
20260906084527 75 227 0.9 1.7 0.00 0.00 0.00 86 1013.5
20260906084026 75 204 1.7 1.7 0.00 0.00 0.00 85 1013.8
20260906083522 75 225 0.9 3.5 0.00 0.00 0.00 85 1014.1
20260906083021 75 23 2.6 7.8 0.00 0.00 0.00 86 1014.3
20260906082517 75 297 1.7 2.6 0.00 0.00 0.00 87 1014.3
20260906082012 75 46 1.7 5.2 0.00 0.00 0.00 90 1014.2
20260906081508 75 221 0.9 0.9 0.00 0.00 0.00 94 1014.1
20260906081003 75 285 0.9 1.7 0.00 0.00 0.00 96 1014.0
20260906080500 74 270 0.9 1.7 0.00 0.00 0.00 98 1014.2
20260906075955 74 335 0.9 1.7 0.00 0.00 0.00 99 1014.1
20260906075450 74 273 0.9 1.7 0.00 0.00 0.00 99 1014.3
20260906074945 74 256 1.7 1.7 0.00 0.00 0.00 99 1014.5
20260906074445 74 303 0.0 1.7 0.00 0.00 0.00 99 1014.6
20260906073943 74 335 0.0 0.9 0.00 0.00 0.00 99 1014.6
20260906073438 74 335 0.9 0.9 0.00 0.00 0.00 99 1014.3
20260906072935 74 336 0.0 0.0 0.00 0.00 0.00 99 1014.3
20260906072430 74 336 0.0 0.0 0.00 0.00 0.00 99 1014.0
20260906071926 74 335 0.0 0.0 0.00 0.00 0.00 99 1014.1
20260906071421 74 336 0.0 0.9 0.00 0.00 0.00 99 1014.1
20260906070917 75 319 0.0 0.0 0.00 0.00 0.00 99 1014.1
20260906070413 74 324 0.9 0.9 0.00 0.00 0.00 99 1014.3
20260906065909 74 328 0.0 0.0 0.00 0.00 0.00 99 1014.0
20260906065409 74 328 0.0 0.0 0.00 0.00 0.00 99 1014.3
20260906064905 74 328 0.0 0.0 0.00 0.00 0.00 99 1014.0
20260906064401 74 328 0.9 0.9 0.00 0.00 0.00 99 1014.2
20260906063900 74 328 0.9 0.9 0.00 0.00 0.00 99 1013.9
20260906063355 74 343 0.0 0.0 0.00 0.00 0.00 99 1014.3
20260906062851 74 336 0.9 1.7 0.00 0.00 0.00 99 1014.2
20260906062350 74 265 0.9 0.9 0.00 0.00 0.00 99 1014.2
20260906061846 74 311 0.0 0.9 0.00 0.00 0.00 99 1014.2
20260906061342 74 182 0.9 0.9 0.00 0.00 0.00 99 1013.9
20260906060836 74 182 0.0 0.0 0.00 0.00 0.00 99 1013.9
20260906060334 74 182 0.0 0.9 0.00 0.00 0.00 99 1014.0
20260906055830 74 182 0.0 0.0 0.00 0.00 0.00 99 1013.6
20260906055325 74 182 0.0 0.9 0.00 0.00 0.00 99 1013.6
20260906054820 74 182 0.0 0.0 0.00 0.00 0.00 99 1013.6
20260906054315 74 182 1.7 0.9 0.00 0.00 0.00 99 1013.4
20260906053812 74 182 0.9 0.9 0.00 0.00 0.00 99 1014.0
20260906053307 74 182 0.0 0.0 0.00 0.00 0.00 99 1013.9
20260906052802 74 183 0.9 0.9 0.00 0.00 0.00 99 1013.8
20260906052259 74 182 0.9 0.9 0.00 0.00 0.00 99 1013.6
20260906051755 74 183 0.0 0.9 0.00 0.00 0.00 99 1013.6
20260906051254 74 182 0.9 0.9 0.00 0.00 0.00 99 1013.8
20260906050750 74 183 0.9 0.9 0.00 0.00 0.00 99 1013.8
20260906050245 74 193 0.9 1.7 0.00 0.00 0.00 99 1013.8
20260906045744 74 351 0.9 0.9 0.00 0.19 0.19 99 1013.9
20260906045239 74 351 0.0 0.0 0.00 0.19 0.19 99 1014.0
20260906044735 74 351 0.0 0.0 0.00 0.19 0.19 99 1014.2
20260906044229 74 351 0.0 0.0 0.00 0.19 0.19 99 1014.4
20260906043726 74 351 0.9 0.9 0.00 0.19 0.19 99 1014.3
20260906043222 74 42 0.9 1.7 0.00 0.19 0.19 99 1014.1
20260906042721 74 338 0.0 0.9 0.00 0.19 0.19 99 1014.0
20260906042220 74 338 0.0 0.0 0.00 0.19 0.19 99 1014.0
20260906041716 74 338 0.0 0.0 0.00 0.19 0.19 99 1013.9
20260906041211 74 338 0.0 0.0 0.00 0.19 0.19 99 1014.0
20260906040706 74 339 0.0 0.0 0.00 0.19 0.19 99 1014.1
20260906040202 74 339 0.0 0.0 0.00 0.19 0.19 99 1014.1
20260906035657 74 338 0.0 0.0 0.00 0.19 0.19 99 1014.0
20260906035153 74 338 0.0 0.0 0.00 0.19 0.19 99 1014.0
20260906034647 74 338 0.0 0.0 0.00 0.19 0.19 98 1014.2
20260906034142 74 338 0.0 0.0 0.00 0.19 0.19 98 1014.1
20260906033638 75 339 0.0 0.0 0.00 0.19 0.19 98 1014.1
20260906033138 75 339 0.0 0.0 0.00 0.19 0.19 98 1013.8
20260906032635 74 338 0.0 0.9 0.00 0.19 0.19 98 1014.0
20260906032134 74 338 0.0 0.0 0.00 0.19 0.19 98 1013.9
20260906031630 75 338 0.0 0.0 0.00 0.19 0.19 98 1014.2
20260906031125 75 338 0.0 0.0 0.00 0.19 0.19 98 1014.0
20260906030624 75 338 0.9 0.9 0.00 0.19 0.19 98 1013.9
20260906030120 75 311 1.7 1.7 0.00 0.19 0.19 98 1013.8
20260906025619 75 179 0.0 0.0 0.00 0.19 0.19 98 1013.8
20260906025118 75 180 0.9 0.9 0.00 0.19 0.19 98 1013.8
20260906024613 75 178 0.0 0.9 0.00 0.19 0.19 98 1013.9
20260906024108 75 178 0.0 0.9 0.00 0.19 0.19 98 1013.4
20260906023604 75 178 0.0 0.9 0.00 0.19 0.19 98 1013.5
20260906023103 75 184 1.7 1.7 0.00 0.19 0.19 98 1013.5
20260906022559 75 153 0.9 0.9 0.00 0.19 0.19 98 1013.3
20260906022054 75 153 0.0 0.9 0.00 0.19 0.19 98 1013.4
20260906021550 75 153 0.9 0.9 0.00 0.19 0.19 98 1013.5
20260906021049 75 152 0.9 0.9 0.00 0.19 0.19 98 1013.4
20260906020548 75 152 0.0 0.0 0.00 0.19 0.19 98 1013.4
20260906020048 76 152 0.0 0.0 0.00 0.19 0.19 98 1013.4
20260906015548 75 152 0.0 0.0 0.00 0.19 0.19 98 1013.4
20260906015047 75 152 0.9 1.7 0.00 0.19 0.19 98 1013.4
20260906014542 76 152 0.0 0.9 0.00 0.19 0.19 98 1013.3
20260906014038 76 152 0.9 1.7 0.00 0.19 0.19 98 1013.3
20260906013533 76 151 0.9 0.9 0.00 0.19 0.19 98 1013.3
20260906013029 75 151 1.7 0.9 0.00 0.19 0.19 98 1013.2
20260906012524 75 150 0.9 0.9 0.00 0.19 0.19 98 1013.1
20260906012023 75 221 0.9 0.9 0.00 0.19 0.19 98 1013.0
20260906011519 75 222 0.9 0.9 0.00 0.19 0.19 97 1012.7
20260906011019 75 223 0.0 0.0 0.05 0.19 0.19 97 1012.8
20260906010514 75 222 0.0 0.9 0.00 0.18 0.18 97 1012.5
20260906010011 75 223 0.0 0.9 0.00 0.18 0.18 97 1012.6
20260906005510 76 224 0.0 0.9 0.00 0.18 0.18 97 1012.3
20260906005009 76 224 0.9 1.7 0.00 0.18 0.18 97 1012.3
20260906004509 76 245 0.0 0.0 0.00 0.18 0.18 96 1012.1
20260906004004 76 245 0.0 1.7 0.00 0.18 0.18 96 1012.3
20260906003459 76 245 0.9 0.9 0.00 0.18 0.18 96 1012.1
20260906002954 76 245 0.0 0.0 0.00 0.18 0.18 96 1012.1
20260906002455 77 245 0.0 0.9 0.00 0.18 0.18 95 1012.6
20260906001950 77 214 1.7 0.9 0.12 0.18 0.18 95 1012.2
20260906001446 77 286 0.9 0.9 0.19 0.18 0.18 95 1012.6
20260906000940 77 185 0.0 0.9 0.00 0.15 0.15 95 1012.5
20260906000436 77 246 2.6 2.6 0.00 0.15 0.15 95 1012.4
20260905235930 77 166 1.7 0.9 0.00 0.15 0.15 94 1012.6
20260905235430 77 165 0.0 0.9 0.00 0.15 0.15 93 1012.3
20260905234925 77 165 0.0 0.9 0.00 0.15 0.15 93 1012.3
20260905234420 77 165 0.0 0.0 0.00 0.15 0.15 94 1012.3
20260905233915 78 165 0.0 0.0 0.00 0.15 0.15 94 1012.3
20260905233410 77 165 0.0 0.0 0.00 0.15 0.15 94 1012.4
20260905232909 77 165 0.0 0.9 0.00 0.15 0.15 94 1012.5
20260905232405 77 168 0.9 1.7 0.00 0.15 0.15 94 1012.4
20260905231901 77 195 1.7 1.7 0.00 0.15 0.15 93 1012.6
20260905231356 77 174 0.9 1.7 0.00 0.15 0.15 94 1012.4
20260905230853 77 183 0.9 0.9 0.00 0.15 0.15 95 1012.2
20260905230350 78 192 0.9 1.7 0.00 0.15 0.15 95 1012.1
20260905225849 77 217 1.7 2.6 0.00 0.15 0.15 94 1012.0
20260905225345 78 220 1.7 1.7 0.00 0.15 0.15 94 1011.9
20260905224840 78 195 1.7 1.7 0.00 0.15 0.15 95 1012.3
20260905224336 78 196 1.7 2.6 0.00 0.15 0.15 94 1012.1
20260905223836 78 197 1.7 1.7 0.00 0.15 0.15 93 1012.0
20260905223334 78 174 1.7 2.6 0.12 0.15 0.15 93 1012.0
20260905222828 79 173 0.9 2.6 0.66 0.15 0.15 90 1012.0
20260905222327 82 237 1.7 3.5 0.85 0.14 0.14 84 1012.0
20260905221823 86 204 3.5 7.0 0.42 0.07 0.07 67 1012.7
20260905221320 88 256 7.8 13.0 0.00 0.00 0.00 59 1012.8
20260905220816 91 111 5.2 8.7 0.00 0.00 0.00 60 1012.8
20260905220312 94 142 5.2 7.0 0.00 0.00 0.00 55 1012.6
20260905215811 95 213 0.0 0.9 0.00 0.00 0.00 64 1012.0
20260905215306 95 215 0.9 0.9 0.00 0.00 0.00 59 1011.6
20260905214802 96 214 0.9 0.9 0.00 0.00 0.00 59 1011.7
20260905214258 95 215 0.9 1.7 0.00 0.00 0.00 58 1011.9
20260905213753 95 215 0.9 1.7 0.00 0.00 0.00 64 1011.8
20260905213249 96 224 0.9 0.9 0.00 0.00 0.00 56 1011.9
20260905212744 96 224 1.7 1.7 0.00 0.00 0.00 57 1012.1
20260905212243 96 225 0.9 0.9 0.00 0.00 0.00 61 1011.8
20260905211743 97 215 0.9 1.7 0.00 0.00 0.00 58 1011.8
20260905211238 98 222 0.9 0.9 0.00 0.00 0.00 57 1012.1
20260905210735 98 325 0.9 2.6 0.00 0.00 0.00 52 1011.9
20260905210234 98 257 0.9 1.7 0.00 0.00 0.00 56 1012.0
20260905205733 98 261 0.9 1.7 0.00 0.00 0.00 59 1012.0
20260905205229 97 306 0.0 1.7 0.00 0.00 0.00 55 1011.9
20260905204728 97 5 1.7 2.6 0.00 0.00 0.00 52 1011.9
20260905204224 98 253 0.9 0.9 0.00 0.00 0.00 55 1012.2
20260905203723 98 15 0.9 1.7 0.00 0.00 0.00 56 1012.1
20260905203219 98 310 1.7 3.5 0.00 0.00 0.00 51 1012.2
20260905202714 98 327 1.7 2.6 0.00 0.00 0.00 53 1012.2
20260905202209 98 175 3.5 3.5 0.00 0.00 0.00 50 1012.3
20260905201705 98 241 0.9 2.6 0.00 0.00 0.00 55 1012.3
20260905201205 98 7 0.9 1.7 0.00 0.00 0.00 52 1012.5
20260905200700 98 22 1.7 2.6 0.00 0.00 0.00 47 1012.8
20260905200155 99 184 0.9 5.2 0.00 0.00 0.00 49 1012.5
20260905195654 98 199 0.9 0.9 0.00 0.00 0.00 50 1012.9
20260905195149 98 190 2.6 2.6 0.00 0.00 0.00 50 1012.9
20260905194644 98 353 0.0 0.9 0.00 0.00 0.00 55 1013.1
20260905194144 97 335 1.7 3.5 0.00 0.00 0.00 56 1013.2
20260905193639 98 318 0.9 1.7 0.00 0.00 0.00 53 1012.9
20260905193139 98 349 0.9 3.5 0.00 0.00 0.00 53 1013.1
20260905192634 98 333 0.9 0.9 0.00 0.00 0.00 51 1013.2
20260905192131 99 336 3.5 5.2 0.00 0.00 0.00 50 1013.2
20260905191630 99 279 1.7 2.6 0.00 0.00 0.00 48 1013.1
20260905191128 98 182 0.9 0.9 0.00 0.00 0.00 50 1013.4
20260905190627 98 247 0.9 0.9 0.00 0.00 0.00 56 1013.4
20260905190126 97 257 1.7 1.7 0.00 0.00 0.00 49 1013.6
20260905185626 97 293 3.5 7.0 0.00 0.00 0.00 54 1013.6
20260905185126 97 317 1.7 2.6 0.00 0.00 0.00 57 1013.5
20260905184620 97 313 1.7 2.6 0.00 0.00 0.00 55 1014.0
20260905184119 97 356 3.5 3.5 0.00 0.00 0.00 56 1013.8
20260905183618 97 192 0.9 0.9 0.00 0.00 0.00 53 1013.9
20260905183114 96 330 2.6 2.6 0.00 0.00 0.00 58 1013.9
20260905182614 96 314 1.7 2.6 0.00 0.00 0.00 56 1014.0
20260905182113 96 303 2.6 3.5 0.00 0.00 0.00 59 1014.1
20260905181608 96 309 1.7 3.5 0.00 0.00 0.00 59 1014.2
20260905181107 96 350 1.7 3.5 0.00 0.00 0.00 56 1014.4
20260905180602 97 322 0.0 2.6 0.00 0.00 0.00 52 1014.2
20260905180057 96 28 1.7 1.7 0.00 0.00 0.00 53 1014.3
20260905175556 96 234 0.9 3.5 0.00 0.00 0.00 61 1014.5
20260905175052 96 144 1.7 2.6 0.00 0.00 0.00 57 1014.4
20260905174548 96 293 0.0 1.7 0.00 0.00 0.00 54 1014.7
20260905174043 96 350 0.9 1.7 0.00 0.00 0.00 57 1014.5
20260905173540 96 306 1.7 2.6 0.00 0.00 0.00 56 1014.4
20260905173035 96 345 1.7 3.5 0.00 0.00 0.00 60 1014.8
20260905172533 96 4 1.7 1.7 0.00 0.00 0.00 56 1014.7
20260905172029 96 120 0.9 3.5 0.00 0.00 0.00 56 1014.9
20260905171525 96 318 1.7 1.7 0.00 0.00 0.00 58 1014.9
20260905171021 95 342 0.9 1.7 0.00 0.00 0.00 59 1014.9
20260905170517 95 38 1.7 1.7 0.00 0.00 0.00 58 1015.1
20260905170012 95 335 0.9 1.7 0.00 0.00 0.00 60 1015.2
20260905165507 94 322 1.7 2.6 0.00 0.00 0.00 61 1014.9
20260905165002 94 284 0.9 2.6 0.00 0.00 0.00 62 1015.2
20260905164501 93 339 1.7 2.6 0.00 0.00 0.00 68 1015.2
20260905163956 93 9 2.6 5.2 0.00 0.00 0.00 66 1015.3
20260905163453 93 312 0.0 2.6 0.00 0.00 0.00 63 1015.4
20260905162948 93 299 1.7 2.6 0.00 0.00 0.00 69 1015.4
20260905162444 93 342 2.6 3.5 0.00 0.00 0.00 66 1015.3
20260905161938 93 328 1.7 2.6 0.00 0.00 0.00 64 1015.2
20260905161438 92 304 2.6 3.5 0.00 0.00 0.00 65 1015.6
20260905160936 93 298 1.7 3.5 0.00 0.00 0.00 64 1015.6
20260905160430 93 308 2.6 2.6 0.00 0.00 0.00 63 1015.6
20260905155929 93 280 0.0 1.7 0.00 0.00 0.00 66 1015.7
20260905155424 92 336 0.9 1.7 0.00 0.00 0.00 66 1015.8
20260905154923 91 288 1.7 1.7 0.00 0.00 0.00 66 1015.8
20260905154419 91 337 1.7 1.7 0.00 0.00 0.00 68 1015.8
20260905153914 91 309 3.5 3.5 0.00 0.00 0.00 63 1015.9
20260905153411 91 316 1.7 2.6 0.00 0.00 0.00 64 1015.8
20260905152910 91 343 0.9 3.5 0.00 0.00 0.00 69 1015.9
20260905152409 91 357 1.7 2.6 0.00 0.00 0.00 71 1015.7
20260905151904 90 359 0.9 1.7 0.00 0.00 0.00 69 1016.0
20260905151400 90 69 0.9 1.7 0.00 0.00 0.00 67 1015.7
20260905150855 89 4 0.0 0.9 0.00 0.00 0.00 74 1015.8
20260905150354 89 300 0.0 0.9 0.00 0.00 0.00 70 1015.9
20260905145852 88 326 2.6 2.6 0.00 0.00 0.00 70 1015.9
20260905145346 88 3 1.7 1.7 0.00 0.00 0.00 73 1015.7
20260905144845 87 307 0.0 1.7 0.00 0.00 0.00 74 1015.8
20260905144341 87 350 0.9 2.6 0.00 0.00 0.00 74 1015.8
20260905143839 86 307 0.0 0.9 0.00 0.00 0.00 79 1016.2
20260905143334 86 342 2.6 2.6 0.00 0.00 0.00 80 1015.9
20260905142833 86 17 2.6 3.5 0.00 0.00 0.00 80 1015.9
20260905142327 85 17 1.7 1.7 0.00 0.00 0.00 81 1015.9
20260905141823 85 348 1.7 2.6 0.00 0.00 0.00 83 1016.3